Temperature
21 20 21 21 22 22 23 23 24 23 23 22 21 21 20 20 19 19 19 19 19 19 18 18 18 18 18 18 18 17 17 17 17 17 17 17 18 18 18 18 18 18 18
20 19 19 19 19 20 21 22 22 23 22 22 22 21 20 20 19 19 19 18 18 18 18 18 18 18 17 17 17 17 17 17 17 17 17 17 17 18 18 18 18 18 18
19 18 18 18 18 19 19 20 21 22 22 22 21 21 20 19 19 18 18 18 18 18 18 17 17 17 17 17 17 17 17 17 17 17 16 16 17 17 18 17 17 18 18
18 18 17 17 17 17 17 18 19 20 21 21 21 20 20 19 19 18 18 18 18 17 17 17 17 17 17 17 17 17 16 16 17 17 16 16 17 16 17 17 17 17 17
18 17 17 16 16 16 16 17 17 18 19 20 20 20 19 19 18 18 18 17 17 17 17 17 17 17 17 16 16 16 16 16 16 16 16 16 16 16 16 16 17 17 17
17 17 16 15 15 15 16 16 16 17 17 18 19 19 18 18 18 17 17 16 16 16 16 16 16 16 16 16 16 16 16 16 16 16 16 16 16 16 16 16 16 17 17
16 15 15 14 14 14 15 15 15 16 16 16 17 17 17 17 16 16 16 15 15 16 16 16 16 16 16 16 16 16 16 16 16 16 16 15 15 15 15 15 16 16 16
15 14 14 13 13 13 14 14 14 14 15 15 15 15 15 15 15 15 15 14 14 15 15 15 15 16 16 16 16 16 16 15 15 15 15 15 15 15 15 15 15 15 15
14 13 13 13 13 13 13 13 13 14 14 14 14 14 14 14 14 14 14 14 14 14 14 14 15 15 16 16 16 16 16 15 15 15 15 15 15 15 15 14 14 14 15
13 13 13 13 13 13 13 13 13 13 13 13 13 13 13 13 13 13 13 13 13 14 14 14 15 15 16 16 16 16 15 15 15 15 15 15 15 14 14 14 14 14 14
12 12 12 13 13 13 13 13 13 13 13 13 13 13 13 13 13 13 13 13 14 14 14 15 15 15 16 16 16 15 15 15 15 15 15 15 15 14 14 14 14 14 14
12 12 12 12 13 13 13 13 13 13 13 13 13 13 13 14 14 14 14 14 15 15 15 15 16 16 16 16 16 15 15 15 15 15 15 15 15 14 14 14 14 14 14
12 12 12 13 12 12 13 13 13 13 13 13 14 14 14 14 14 14 15 15 15 15 15 15 16 16 16 16 16 15 15 15 15 15 15 15 15 14 14 14 14 14 14
13 13 13 13 13 12 12 13 13 13 13 13 14 14 14 14 14 14 15 15 15 15 15 15 15 16 16 15 15 15 15 15 15 15 15 15 15 14 14 14 14 14 14
14 14 14 14 13 13 13 12 12 12 13 13 13 13 13 14 14 14 14 14 15 15 15 15 15 15 15 15 15 15 15 15 15 15 15 15 15 15 15 14 14 14 14
15 15 14 14 14 14 13 13 12 12 12 12 12 12 13 13 13 13 13 13 14 14 14 15 15 15 15 15 15 15 15 15 15 15 15 15 15 15 15 15 15 14 14
15 15 15 15 15 14 14 13 13 12 12 12 12 12 12 12 12 12 12 12 13 13 13 13 13 14 14 14 14 15 15 15 15 15 15 15 15 15 15 15 15 14 14
15 15 15 15 15 15 15 14 13 13 12 12 12 12 12 12 12 12 12 12 12 12 12 12 12 12 13 13 13 14 14 14 14 14 14 14 14 14 14 14 14 14 14
15 15 15 15 15 15 15 14 14 13 12 12 12 12 11 11 11 11 11 11 11 11 11 11 11 11 12 12 12 13 13 13 13 13 14 14 14 14 14 14 14 14 14
15 15 15 15 15 15 15 15 14 13 12 12 12 11 11 11 11 11 11 11 11 11 11 11 11 11 11 11 12 12 12 12 13 13 13 13 13 14 14 14 14 14 14
15 15 15 15 15 15 15 15 14 13 13 12 12 12 12 12 11 11 11 11 11 11 10 10 10 10 10 11 11 11 12 12 12 12 12 12 13 13 13 14 14 14 14
15 15 15 15 15 15 15 15 14 14 13 13 12 12 12 12 11 11 11 11 10 10 10 10 10 10 10 10 11 11 11 11 11 11 11 12 12 13 13 13 13 13 13
15 15 15 15 15 15 15 15 15 14 14 13 13 13 12 12 11 11 11 10 10 10 10 10 10 10 10 10 11 11 10 10 10 11 11 11 12 12 12 13 13 13 13
15 15 15 15 15 15 15 15 15 15 14 14 13 13 12 12 11 11 11 11 11 11 10 10 10 10 10 10 11 10 10 10 10 10 10 11 11 11 12 12 12 12 12
15 15 15 15 15 15 15 15 15 15 15 14 14 13 13 12 11 11 11 11 10 10 10 10 10 10 10 10 9 9 10 10 10 10 10 10 11 11 11 11 11 12 12
15 15 15 15 15 15 15 15 15 15 15 14 14 13 12 12 11 11 11 10 10 10 10 10 10 10 9 9 9 9 9 10 10 10 10 10 10 10 10 11 11 11 11
Wind_Speed
12 14 14 14 12 11 10 9 6 8 8 8 8 7 6 6 6 5 5 6 4 4 6 4 3 1 3 2 1 1 1 1 1 2 3 3 4 5 4 3 2 2 8
12 13 14 14 15 15 15 14 11 6 8 8 10 9 8 6 6 5 5 6 5 4 4 5 4 3 2 2 2 1 2 1 2 2 1 2 4 4 3 4 3 3 3
11 12 12 13 13 14 16 15 16 13 6 7 8 8 8 7 6 6 5 5 5 4 4 4 4 4 4 4 4 4 5 5 4 4 3 3 4 2 4 4 5 4 2
10 10 10 12 13 14 14 15 16 16 11 4 7 10 8 8 7 6 5 5 4 3 4 3 3 3 3 4 5 6 5 6 5 5 4 4 4 3 2 3 3 6 5
10 10 11 12 13 13 13 13 13 13 13 8 1 5 6 6 5 6 7 5 4 3 3 2 2 2 2 4 5 6 6 5 6 5 4 3 2 4 3 2 3 2 2
12 12 12 12 12 12 12 12 12 12 12 11 8 6 7 8 8 7 7 4 3 3 3 3 2 1 1 3 4 5 4 4 5 4 4 3 3 3 3 4 4 3 3
13 13 13 13 13 13 12 11 11 11 11 11 11 9 7 7 6 6 6 5 3 2 3 2 2 1 1 2 2 2 3 4 5 5 3 2 3 2 2 3 3 3 3
13 13 13 12 12 12 12 11 10 10 9 9 9 9 8 6 5 5 5 4 3 2 2 3 3 3 2 2 2 1 4 3 4 5 4 3 3 2 3 3 3 3 3
14 13 12 12 12 12 12 10 9 9 9 8 8 7 6 6 6 5 4 3 2 1 1 3 4 4 5 4 3 3 4 2 1 1 1 2 2 2 3 3 4 4 4
14 13 12 12 11 10 9 10 9 9 8 7 6 6 6 6 5 4 3 2 0 1 2 5 7 7 7 6 4 2 1 1 1 1 2 3 3 3 3 4 4 5 5
14 13 12 11 10 9 9 8 8 8 8 8 7 6 5 4 2 1 1 2 3 4 5 7 7 7 7 7 6 4 3 3 4 5 6 6 5 4 4 4 4 4 5
13 12 11 11 11 11 10 9 8 7 7 6 6 6 6 5 4 3 3 3 4 4 6 6 6 6 5 6 7 7 5 4 5 5 3 3 3 3 3 3 4 5 5
10 9 8 8 9 9 9 9 8 7 6 5 6 6 6 5 5 5 5 5 5 6 6 5 6 5 3 4 4 6 6 7 7 6 4 3 2 3 2 3 4 4 4
6 7 7 7 7 8 8 8 8 7 6 5 5 6 6 6 5 5 5 5 5 5 6 5 4 3 1 2 2 2 3 4 5 5 6 5 3 2 1 1 1 2 3
7 8 8 7 7 7 7 7 6 6 6 6 7 6 6 6 6 6 6 6 7 7 8 8 8 8 7 9 9 7 6 5 4 4 4 3 6 7 4 2 2 2 0
10 9 8 7 8 8 7 7 7 7 7 8 8 8 8 8 8 8 7 7 8 8 9 9 10 10 10 13 13 10 7 7 6 4 3 3 7 8 6 5 3 1 1
10 9 8 8 7 7 7 7 8 8 8 8 8 8 8 8 8 9 9 8 8 9 9 9 9 9 11 16 15 14 8 7 7 6 4 2 4 8 7 7 6 4 3
9 9 8 8 8 8 7 7 7 8 8 7 7 7 8 7 7 7 8 8 7 7 7 8 8 7 10 16 16 16 8 6 6 6 4 2 1 2 2 4 5 5 6
8 8 7 7 7 7 7 7 7 8 7 7 7 7 7 7 7 8 7 6 6 6 6 6 7 7 8 14 16 16 7 6 6 4 3 4 4 5 4 2 1 2 3
7 8 7 8 8 7 6 7 7 8 7 7 7 7 6 6 7 7 7 6 5 5 4 4 5 6 6 10 15 15 7 8 7 5 5 8 7 6 6 4 3 3 2
6 8 8 6 6 6 5 6 6 6 5 5 5 5 6 5 6 6 6 6 5 5 5 5 5 5 5 8 12 13 7 6 7 5 5 6 8 7 7 5 3 3 3
7 7 7 7 7 5 6 5 4 3 2 2 3 4 4 6 7 6 6 6 6 6 7 6 6 5 6 8 11 12 10 8 5 5 4 4 7 6 5 3 3 4 4
7 6 6 7 7 7 5 5 3 1 0 2 2 2 4 5 6 7 7 6 6 6 6 6 6 6 7 9 16 15 13 10 5 3 4 5 6 6 3 1 0 1 1
6 6 7 8 8 7 5 5 5 3 1 2 2 4 6 6 6 6 6 6 7 6 6 7 7 6 7 9 10 10 9 9 6 4 3 3 4 3 3 1 1 1 1
6 6 7 7 8 8 7 7 7 7 4 2 4 5 5 5 6 6 6 6 6 5 5 5 6 6 7 9 12 10 8 7 6 5 4 4 3 4 4 4 4 4 4
7 7 6 7 8 8 8 8 7 7 6 4 5 5 4 3 4 5 5 8 6 6 7 7 6 5 7 10 12 13 15 14 12 8 7 8 7 7 7 6 6 6 5
Wind_Direction
12 14 2 356 347 337 319 299 249 197 185 172 170 165 164 159 156 158 158 157 144 126 120 130 146 125 130 148 192 117 110 53 339 313 318 310 266 256 202 199 270 253 140
8 11 5 4 0 355 347 335 323 273 213 187 179 176 168 164 152 146 140 144 152 157 150 157 156 147 136 172 220 166 160 210 238 222 241 310 317 299 260 194 195 283 165
10 7 3 1 0 358 351 343 336 325 283 209 186 175 159 154 145 149 148 153 161 164 151 149 157 178 179 195 216 216 202 210 231 230 191 190 229 270 295 233 194 220 222
9 7 5 2 2 1 354 350 348 345 334 278 199 178 164 159 154 147 138 132 125 131 140 138 145 169 186 201 218 221 215 209 224 241 232 216 194 178 284 311 243 203 199
6 8 12 10 10 7 2 358 1 3 3 6 40 152 140 127 117 119 121 112 93 90 102 102 120 154 190 215 223 228 214 204 214 230 232 240 246 222 199 253 295 288 190
8 17 18 16 14 12 11 9 15 20 24 31 41 75 108 116 118 116 116 106 95 79 81 96 106 139 216 241 242 232 214 207 219 231 224 210 213 218 201 213 240 258 256
9 18 20 18 16 14 16 18 26 32 35 46 51 59 78 98 112 116 118 120 111 114 129 126 137 186 261 279 287 279 251 222 224 227 232 233 234 212 194 209 232 239 256
16 23 24 23 18 16 18 21 29 35 41 54 60 60 65 72 86 91 101 103 106 114 145 163 181 205 229 255 254 298 281 258 241 220 214 212 237 224 207 205 209 231 250
14 24 25 23 18 16 18 22 31 38 42 53 60 64 70 77 81 80 81 82 78 93 166 212 213 219 219 225 234 209 258 241 284 337 271 223 231 237 232 223 205 197 219
11 21 22 20 15 13 14 24 33 41 41 47 53 66 70 74 80 78 71 68 338 250 219 225 223 219 207 203 211 223 276 340 239 182 268 265 240 236 229 225 225 210 208
11 16 15 11 12 11 14 18 23 31 33 34 37 45 53 63 75 92 168 228 242 238 232 235 233 222 203 191 183 198 227 242 261 224 215 224 222 218 223 227 231 227 212
12 10 10 13 15 17 19 20 22 23 23 25 27 26 24 21 13 352 325 304 289 274 259 256 249 244 203 184 174 187 202 221 253 271 263 239 204 202 224 219 227 231 224
2 3 9 19 21 24 25 27 27 23 19 21 23 16 7 359 350 342 340 333 317 296 281 271 261 244 200 185 188 191 202 217 222 225 232 253 213 197 213 215 226 232 236
356 9 14 20 31 34 35 36 35 29 26 31 31 21 7 359 356 354 348 341 335 327 333 333 330 335 45 37 342 296 250 245 244 229 209 203 208 154 148 201 221 230 233
26 31 26 25 35 39 38 40 43 41 39 37 35 29 26 19 17 17 15 13 9 10 10 10 20 27 38 28 12 346 319 289 267 262 251 178 129 109 99 84 43 20 294
27 31 31 30 39 45 47 41 46 46 47 46 43 37 36 32 30 28 26 31 33 29 28 30 35 41 36 20 16 358 330 317 306 289 268 170 154 152 151 154 151 114 37
19 19 28 29 35 49 59 57 50 47 46 47 45 40 37 36 31 28 25 32 43 38 36 34 36 43 32 17 7 356 328 302 297 300 294 259 168 165 178 189 194 201 200
13 6 19 32 30 31 48 66 64 53 43 41 47 44 37 32 30 31 35 29 32 39 40 31 28 31 30 15 4 351 319 288 282 282 282 292 174 167 147 174 195 196 187
8 355 4 26 27 24 29 46 58 57 43 34 38 39 33 26 23 25 33 36 31 35 49 31 23 22 23 15 7 359 331 331 325 322 7 38 63 59 48 25 44 121 134
9 353 359 16 14 9 17 36 52 54 43 30 28 27 25 26 28 21 21 28 30 30 57 50 33 32 19 16 15 10 1 356 347 355 50 60 65 53 38 21 33 66 77
17 359 355 0 348 347 5 39 49 56 55 35 23 17 11 27 48 29 22 24 20 21 29 41 34 35 28 16 15 12 11 352 346 6 40 50 45 40 31 25 36 66 23
18 3 350 341 328 349 13 25 59 64 78 70 30 11 36 38 37 32 30 26 17 26 29 24 21 14 21 20 3 358 357 350 350 5 22 28 17 10 1 20 62 40 10
15 357 345 345 345 359 4 355 35 44 271 110 53 27 62 69 51 33 33 29 28 28 25 19 16 13 17 12 5 359 356 355 345 346 354 347 351 343 329 186 97 335 324
1 355 6 1 341 336 349 9 6 335 289 142 94 68 63 68 69 45 37 41 29 24 20 16 11 10 17 12 2 354 354 354 356 352 346 344 358 357 5 83 199 215 87
358 9 14 347 336 350 14 27 7 343 341 93 99 87 80 75 87 74 46 47 58 42 22 7 3 13 11 358 355 3 3 358 2 358 9 22 23 32 38 42 47 55 67
4 4 359 347 351 1 15 22 2 344 349 43 75 70 79 80 107 123 96 53 67 61 52 38 26 36 17 358 5 9 14 20 27 37 38 34 35 41 44 46 46 49 52
Height
1512 1511 1509 1508 1507 1507 1507 1508 1509 1508 1510 1512 1513 1515 1517 1520 1522 1525 1527 1530 1532 1534 1536 1538 1541 1543 1545 1547 1549 1550 1551 1552 1554 1555 1555 1556 1557 1557 1557 1557 1558 1558 1558
1514 1512 1510 1508 1506 1504 1503 1503 1504 1505 1505 1505 1506 1508 1511 1514 1517 1520 1523 1525 1528 1530 1532 1535 1537 1540 1542 1544 1546 1547 1548 1550 1551 1552 1553 1553 1555 1554 1555 1555 1556 1556 1557
1515 1513 1511 1509 1507 1504 1502 1500 1499 1499 1500 1500 1500 1500 1502 1508 1511 1515 1518 1521 1524 1527 1529 1531 1533 1536 1538 1540 1542 1544 1545 1546 1547 1549 1551 1551 1551 1551 1552 1553 1553 1554 1555
1516 1514 1512 1509 1507 1504 1501 1498 1496 1494 1494 1495 1495 1493 1493 1498 1503 1508 1513 1516 1519 1522 1525 1527 1529 1531 1534 1536 1537 1539 1541 1542 1543 1545 1547 1548 1549 1550 1549 1551 1551 1552 1552
1516 1514 1512 1509 1507 1503 1500 1497 1494 1492 1491 1491 1492 1491 1492 1493 1498 1503 1507 1510 1514 1517 1520 1523 1524 1526 1529 1531 1533 1535 1536 1538 1539 1541 1543 1544 1545 1546 1547 1548 1549 1549 1550
1516 1514 1512 1509 1506 1503 1500 1497 1494 1492 1490 1489 1490 1491 1492 1493 1496 1499 1502 1505 1509 1513 1516 1519 1521 1523 1525 1528 1530 1531 1534 1535 1536 1538 1539 1540 1541 1542 1543 1544 1545 1546 1547
1517 1515 1512 1509 1506 1503 1500 1497 1495 1493 1491 1490 1490 1491 1492 1494 1496 1497 1500 1502 1505 1509 1512 1516 1518 1521 1522 1525 1527 1530 1531 1533 1533 1534 1535 1536 1537 1538 1540 1541 1541 1542 1543
1519 1517 1514 1511 1508 1505 1502 1499 1497 1495 1493 1492 1492 1492 1493 1495 1496 1497 1498 1501 1504 1507 1510 1513 1516 1518 1520 1523 1525 1527 1529 1530 1531 1531 1532 1532 1533 1534 1536 1537 1538 1538 1538
1522 1519 1516 1513 1510 1507 1504 1502 1500 1497 1496 1495 1494 1495 1495 1496 1497 1498 1500 1502 1504 1506 1509 1511 1514 1516 1519 1521 1523 1525 1526 1528 1528 1529 1529 1529 1529 1530 1531 1532 1534 1535 1534
1524 1521 1519 1516 1513 1511 1508 1505 1503 1501 1500 1498 1498 1498 1498 1498 1499 1500 1502 1503 1505 1507 1509 1511 1514 1516 1518 1519 1521 1523 1524 1525 1526 1526 1527 1526 1527 1527 1528 1528 1529 1530 1531
1527 1524 1521 1519 1516 1513 1511 1508 1506 1505 1503 1502 1502 1502 1502 1502 1503 1504 1505 1506 1507 1509 1510 1512 1513 1515 1516 1518 1519 1521 1522 1523 1523 1524 1524 1524 1524 1524 1525 1525 1525 1526 1526
1531 1527 1524 1521 1518 1515 1513 1510 1509 1508 1507 1506 1506 1506 1506 1506 1506 1507 1508 1508 1509 1510 1511 1512 1513 1514 1515 1517 1518 1519 1520 1521 1522 1523 1523 1523 1523 1522 1522 1521 1521 1522 1522
1535 1531 1528 1525 1521 1518 1515 1513 1511 1510 1510 1509 1509 1508 1509 1509 1509 1509 1509 1509 1509 1509 1510 1510 1511 1512 1514 1515 1517 1518 1519 1519 1520 1521 1521 1521 1521 1520 1519 1519 1518 1518 1519
1538 1535 1532 1529 1526 1523 1519 1517 1515 1513 1512 1511 1511 1510 1510 1510 1510 1510 1509 1509 1509 1509 1509 1509 1509 1510 1511 1512 1514 1515 1516 1517 1518 1519 1519 1519 1519 1518 1517 1517 1516 1516 1516
1542 1539 1536 1533 1530 1528 1525 1522 1519 1517 1515 1514 1513 1512 1512 1511 1510 1510 1509 1509 1508 1508 1508 1508 1508 1508 1508 1509 1510 1512 1513 1514 1515 1516 1516 1517 1517 1516 1516 1515 1515 1514 1514
1545 1543 1540 1537 1535 1532 1530 1527 1524 1522 1520 1517 1516 1515 1513 1512 1511 1511 1510 1509 1508 1507 1507 1506 1507 1506 1507 1507 1508 1509 1510 1511 1512 1512 1513 1514 1514 1514 1514 1514 1514 1513 1513
1549 1546 1544 1541 1539 1536 1534 1531 1529 1527 1524 1522 1520 1518 1516 1515 1513 1512 1511 1510 1509 1508 1507 1506 1505 1505 1505 1505 1505 1505 1506 1507 1508 1509 1510 1511 1511 1512 1512 1513 1513 1513 1513
1552 1550 1547 1545 1543 1540 1538 1535 1533 1530 1528 1526 1524 1522 1520 1518 1517 1515 1514 1512 1511 1509 1508 1507 1506 1505 1504 1504 1503 1503 1503 1503 1504 1506 1507 1508 1509 1510 1510 1511 1512 1512 1513
1555 1552 1550 1548 1546 1544 1541 1539 1536 1534 1532 1530 1528 1526 1524 1522 1520 1518 1516 1514 1513 1511 1510 1509 1508 1506 1505 1503 1502 1501 1501 1501 1501 1502 1503 1504 1505 1506 1508 1510 1510 1511 1512
1557 1554 1552 1551 1548 1546 1544 1541 1539 1537 1535 1533 1531 1529 1527 1524 1522 1520 1518 1517 1515 1514 1512 1511 1509 1508 1506 1504 1502 1501 1500 1500 1500 1500 1500 1501 1502 1503 1505 1507 1509 1510 1511
1557 1555 1554 1552 1550 1548 1546 1543 1541 1539 1537 1535 1533 1531 1529 1527 1524 1522 1520 1518 1517 1516 1514 1513 1511 1509 1508 1505 1503 1501 1500 1499 1499 1498 1498 1498 1499 1501 1503 1505 1507 1508 1510
1558 1556 1554 1552 1550 1548 1546 1544 1542 1540 1538 1537 1535 1533 1531 1529 1526 1524 1521 1520 1518 1517 1516 1515 1513 1512 1509 1507 1504 1502 1500 1498 1498 1497 1497 1497 1498 1499 1501 1502 1504 1507 1508
1558 1556 1554 1552 1550 1548 1547 1545 1543 1541 1539 1537 1536 1534 1532 1530 1528 1525 1523 1521 1520 1519 1518 1516 1515 1513 1511 1508 1505 1502 1500 1498 1497 1496 1496 1496 1496 1497 1499 1500 1503 1505 1507
1558 1556 1554 1552 1550 1548 1547 1545 1543 1541 1539 1538 1536 1535 1534 1532 1530 1527 1525 1524 1522 1521 1520 1518 1516 1515 1512 1509 1506 1503 1500 1498 1497 1496 1496 1496 1496 1497 1498 1500 1502 1504 1506
1558 1556 1554 1552 1551 1549 1547 1545 1543 1541 1540 1539 1538 1536 1535 1533 1531 1530 1528 1526 1525 1524 1522 1521 1519 1516 1514 1512 1509 1506 1503 1500 1499 1498 1498 1497 1498 1498 1499 1501 1502 1504 1506
1558 1556 1555 1553 1551 1549 1547 1545 1543 1542 1541 1540 1538 1537 1536 1535 1534 1532 1531 1529 1528 1527 1525 1523 1521 1519 1517 1515 1512 1509 1507 1504 1503 1501 1500 1500 1501 1501 1502 1503 1504 1506 1507